Change the Weather History Date:

Thursday, August 8, 2013

  Actual Average Record
Temperature  
Mean Temperature 54 °F -  
Max Temperature 58 °F 66 °F 86 °F (2006)
Min Temperature 51 °F 40 °F 39 °F (2000)
Degree Days  
Heating Degree Days 10    
Growing Degree Days 4 (Base 50)    
Moisture  
Dew Point 53 °F    
Average Humidity 96    
Maximum Humidity 100    
Minimum Humidity 88    
Precipitation  
Precipitation 0.35 in - - ()
Sea Level Pressure  
Sea Level Pressure 30.22 in    
Wind  
Wind Speed 7 mph ()    
Max Wind Speed 12 mph    
Max Gust Speed -    
Visibility 3.9 miles    
Events Rain    
Averages and records for this station are not official NWS values.
T = Trace of Precipitation, MM = Missing Value Source: Averaged Metar Reports

Daily Weather History Graph

Daily Weather History Graph

Search for Another Location

Airport or City:

Trip Planner

Search our weather history database for the weather conditions in past years. The results will help you decide how hot, cold, wet, or windy it might be!

Date:

Astronomy

Aug. 08, 2013 Rise Set
Actual Time 6:13 AM MDT 9:11 PM MDT
Civil Twilight 5:35 AM MDT 9:49 PM MDT
Nautical Twilight 4:45 AM MDT 10:39 PM MDT
Astronomical Twilight 3:42 AM MDT 11:41 PM MDT
Moon 8:25 AM MDT (8/8) 9:28 PM MDT (8/8)
Length of Visible Light 16h 14m
Length of Day
14h 57m
Waxing Crescent, 3% of the Moon is Illuminated
Aug 8
Waxing Crescent
Aug 14
First Quarter
Aug 20
Full
Aug 28
Last Quarter
Sep 5
New

Hourly Weather History & Observations

Time (MDT) Temp. Dew Point Humidity Pressure Visibility Wind Dir Wind Speed Gust Speed Precip Events Conditions
5:00 AM 53.6 °F 53.6 °F 100% 30.15 in 2.5 mi ENE 8.1 mph - N/A   Overcast
5:40 AM 53.6 °F 53.6 °F 100% 30.15 in 2.0 mi East 6.9 mph - N/A Rain Light Rain Showers
6:00 AM 53 °F 53 °F 99% 30.16 in 2 mi East 8.1 mph - - Rain Light Rain
6:00 AM 53.6 °F 53.6 °F 100% 30.16 in 2.0 mi East 6.9 mph - N/A Rain Light Rain
7:00 AM 51.8 °F 51.8 °F 100% 30.18 in 2.0 mi East 9.2 mph - N/A Rain Light Rain
7:26 AM 51.8 °F 51.8 °F 100% 30.19 in 2.5 mi East 5.8 mph - N/A   Overcast
7:36 AM 51.8 °F 51.8 °F 100% 30.19 in 2.5 mi ESE 8.1 mph - N/A   Light Drizzle
8:00 AM 51.8 °F 51.8 °F 100% 30.21 in 2.5 mi East 6.9 mph - N/A   Light Drizzle
9:00 AM 51.8 °F 51.8 °F 100% 30.21 in 2.5 mi SE 8.1 mph - N/A   Light Drizzle
10:00 AM 51.8 °F 51.8 °F 100% 30.22 in 2.5 mi SE 9.2 mph - N/A   Overcast
11:00 AM 51.8 °F 51.8 °F 100% 30.22 in 2.0 mi ESE 10.4 mph - N/A   Overcast
11:38 AM 51.8 °F 51.8 °F 100% 30.24 in 2.0 mi SE 8.1 mph - N/A   Light Drizzle
12:00 PM 53.6 °F 51.8 °F 94% 30.24 in 3.0 mi SE 8.1 mph - N/A   Light Drizzle
1:00 PM 53.6 °F 51.8 °F 94% 30.23 in 4.0 mi ESE 10.4 mph - N/A   Overcast
1:04 PM 53.6 °F 51.8 °F 94% 30.23 in 4.0 mi SE 9.2 mph - N/A   Overcast
1:12 PM 53.6 °F 53.6 °F 100% 30.23 in 4.0 mi SE 9.2 mph - N/A Rain Light Rain
2:00 PM 55.4 °F 53.6 °F 94% 30.24 in 5.0 mi SE 8.1 mph - N/A   Overcast
3:00 PM 55.4 °F 51.8 °F 88% 30.23 in 5.0 mi SSE 9.2 mph - N/A   Overcast
4:00 PM 57.2 °F 53.6 °F 88% 30.23 in 6.0 mi SE 10.4 mph - N/A   Overcast
5:00 PM 57.2 °F 53.6 °F 88% 30.25 in 6.0 mi SSE 6.9 mph - N/A   Overcast
6:00 PM 55 °F 53 °F 88% 30.25 in 6 mi SE 10.4 mph - -   Partly Cloudy
6:00 PM 55.4 °F 51.8 °F 88% 30.25 in 6.0 mi SSE 11.5 mph - N/A   Overcast
6:28 PM 57.2 °F 53.6 °F 88% 30.25 in 6.0 mi SE 8.1 mph - N/A Rain Light Rain
7:00 PM 55.4 °F 53.6 °F 94% 30.25 in 8.0 mi ESE 8.1 mph - N/A   Overcast
8:00 PM 55.4 °F 53.6 °F 94% 30.26 in 5.0 mi East 5.8 mph - N/A   Overcast
8:29 PM 55.4 °F 53.6 °F 94% 30.28 in 5.0 mi East 5.8 mph - N/A Rain Light Rain
9:00 PM 53.6 °F 53.6 °F 100% 30.28 in 4.0 mi ESE 8.1 mph - N/A Rain Light Rain
10:00 PM 53.6 °F 53.6 °F 100% 30.23 in 5.0 mi SSE 8.1 mph - N/A   Overcast